User: anonymous   Login
Location: Parc National du Mont-Orford
(45.3122°N, 72.2403°W)
Time: 02:59:04
(UTC-04:00)
Language:

Envisat - Orbit

View from above orbital plane
View from above orbital plane
View from above satellite
View from above satellite

Ground track
Ground track

The orbit data is extracted from the following two-line orbital elements,

1 27386U 02009A   18144.58720354 -.00000001 +00000-0 +13238-4 0  9992
2 27386 098.1862 179.7578 0001271 089.2816 022.4203 14.37922518850065
Epoch (UTC): 24 May 2018 14:05:34
Eccentricity: 0.0001271
inclination: 98.1862°
perigee height: 764 km
apogee height: 766 km
right ascension of ascending node: 179.7578°
argument of perigee: 89.2816°
revolutions per day: 14.37922518
mean anomaly at epoch: 22.4203°
orbit number at epoch: 85006

The dashed part of the orbit path shows where the satellite is in the earth's shadow,  

DLR